Location: Trois-Rivi�res
(46.3500°N, 72.5500°W)
Time: 00:25:22
(UTC-05:00)

Envisat - Pass Details

Date: 12 October 2017
Orbit: 764 x 766 km, 98.2° (Epoch: 15 December)

Event Time Altitude Azimuth Distance (km) Brightness Sun altitude
Exits shadow 21:34:04 27° 264° (W) 1,444 4.8 -35.2°
Maximum altitude 21:34:12 27° 266° (W) 1,443 4.8 -35.2°
Drops below altitude 10° 21:38:30 10° 324° (NW) 2,314 6.1 -35.9°
Sets 21:41:10 0° 337° (NNW) 3,246 6.9 -36.3°
